Regional Weather Roundup
Issued by NWS

Home | Current Version | Previous Version | Text Only | Print | Product List | Glossary Off
Versions: 1 2 3 4 5 6 7 8 9 10 11 12 13 14 15 16 17 18 19 20 21 22 23 24 25 26 27 28

000
ASUS45 KSLC 191410
RWRUT

UTAH REGIONAL WEATHER ROUNDUP
NATIONAL WEATHER SERVICE SALT LAKE CITY UT
800 AM MDT SAT APR 19 2014

UTZ001>011-023>025-191500-

NORTHERN UTAH

CITY           SKY/WX    TMP DP  RH WIND       PRES   REMARKS
HILL AFB       CLOUDY    49  35  59 E15       30.02R
LOGAN          CLOUDY    38  35  89 CALM      30.04R
OGDEN          CLOUDY    51  37  58 SE3       30.01R
PROVO AIRPORT  PTSUNNY   46  39  76 CALM      30.04R
SALT LAKE CITY PTSUNNY   49  46  90 E3        30.01R
VERNAL         MOSUNNY   50  35  56 CALM      30.03R
WENDOVER       MOSUNNY   46  30  53 E3        30.03R
HEBER CITY     MOSUNNY   41  32  70 CALM      30.06R
WEST JORDAN    CLOUDY    48  43  81 N3        30.02R

$$

UTZ012>022-026-027-191500-

SOUTHERN UTAH

CITY           SKY/WX    TMP DP  RH WIND       PRES   REMARKS
BRYCE CANYON   PTSUNNY   37  29  72 W3        30.16R
CEDAR CITY     MOSUNNY   50  31  48 E5        30.07R
MILFORD        CLOUDY    50  29  44 SW14      30.04R
MOAB/CYNLANDS  CLOUDY    53  49  86 N5        30.05R
PRICE          PTSUNNY   54  36  50 E12       30.07R
ST GEORGE      MOSUNNY   59  32  36 S6        30.02R
KANAB          CLOUDY    50  36  57 NW9       30.11R

$$

REGIONAL REPORTS     COLORADO/ARIZONA

CITY           SKY/WX    TMP DP  RH WIND       PRES   REMARKS
CRAIG, CO      CLOUDY    43  35  73 CALM      30.09R
GRAND JUNCTION LGT RAIN  50  46  86 W5        30.09R
RIFLE          CLOUDY    50  37  61 CALM      30.08R
MONTROSE       CLOUDY    52  37  56 E5        30.13R
CORTEZ         CLOUDY    47  45  93 CALM      30.14R
PAGE, AZ       MOSUNNY   57  40  52 CALM      30.05R
GRAND CANYON   SUNNY     38  36  92 CALM      30.12R
KINGMAN        MOSUNNY   55  43  63 CALM      30.00R
FLAGSTAFF      SUNNY     34  32  92 CALM      30.13R

$$

REGIONAL REPORTS    NEVADA/IDAHO/WYOMING

CITY           SKY/WX    TMP DP  RH WIND       PRES   REMARKS
LAS VEGAS, NV  MOSUNNY   64  39  39 SW9       29.92R
ELY            MOSUNNY   38  23  55 SE8       30.07R WCI  32
ELKO           MOSUNNY   38  26  62 NE3       30.04R
POCATELLO, ID  SUNNY     34  23  64 CALM      30.04R
BURLEY         SUNNY     33  30  88 CALM      30.01R
EVANSTON, WY   CLOUDY    39  31  72 N3        30.09R
ROCK SPRINGS   PTSUNNY   44  25  47 VRB3      30.08R

$$



USA.gov is the U.S. government's official web portal to all federal, state and local government web resources and services.